TimeChST,TemperatureF,Dew PointF,Humidity,Sea Level PressureIn,VisibilityMPH,Wind Direction,Wind SpeedMPH,Gust SpeedMPH,PrecipitationIn,Events,Conditions,WindDirDegrees,DateUTC
12:54 AM,82.0,73.9,76,29.88,10.0,Calm,Calm,-,N/A,,Clear,0,2013-09-01 14:54:00
1:54 AM,81.0,73.9,79,29.88,10.0,Calm,Calm,-,N/A,,Clear,0,2013-09-01 15:54:00
2:54 AM,82.0,75.0,79,29.87,10.0,Calm,Calm,-,N/A,,Clear,0,2013-09-01 16:54:00
3:54 AM,79.0,73.9,84,29.87,10.0,Calm,Calm,-,N/A,,Clear,0,2013-09-01 17:54:00
4:54 AM,80.1,75.0,85,29.88,10.0,Calm,Calm,-,N/A,,Clear,0,2013-09-01 18:54:00
5:54 AM,80.1,73.9,81,29.88,10.0,Calm,Calm,-,N/A,,Clear,0,2013-09-01 19:54:00
6:54 AM,82.0,75.0,79,29.89,10.0,Calm,Calm,-,N/A,,Clear,0,2013-09-01 20:54:00
7:54 AM,86.0,73.9,67,29.91,10.0,Calm,Calm,-,N/A,,Clear,0,2013-09-01 21:54:00
8:54 AM,84.9,73.9,69,29.93,10.0,Calm,Calm,-,N/A,,Scattered Clouds,0,2013-09-01 22:54:00
9:02 AM,84.2,73.4,70,29.86,10.0,Calm,Calm,-,N/A,,Mostly Cloudy,0,2013-09-01 23:02:00
9:09 AM,87.8,73.4,62,29.87,10.0,Calm,Calm,-,N/A,,Scattered Clouds,0,2013-09-01 23:09:00
9:54 AM,86.0,75.0,70,29.94,10.0,SW,5.8,-,N/A,,Scattered Clouds,230,2013-09-01 23:54:00
10:54 AM,87.1,75.9,69,29.93,10.0,South,6.9,-,N/A,,Scattered Clouds,180,2013-09-02 00:54:00
11:54 AM,87.1,73.9,65,29.91,10.0,South,3.5,-,N/A,,Partly Cloudy,170,2013-09-02 01:54:00
12:54 PM,88.0,75.0,65,29.87,10.0,SW,5.8,-,0.00,,Scattered Clouds,220,2013-09-02 02:54:00
1:54 PM,88.0,73.0,61,29.84,10.0,SSW,6.9,-,N/A,,Clear,200,2013-09-02 03:54:00
2:54 PM,88.0,75.0,65,29.82,10.0,WSW,4.6,-,N/A,,Clear,250,2013-09-02 04:54:00
3:26 PM,87.8,75.2,66,29.75,10.0,WSW,8.1,-,N/A,,Mostly Cloudy,240,2013-09-02 05:26:00
3:43 PM,87.8,75.2,66,29.75,10.0,West,11.5,-,N/A,,Scattered Clouds,280,2013-09-02 05:43:00
3:54 PM,88.0,75.9,67,29.81,10.0,West,9.2,-,N/A,,Partly Cloudy,270,2013-09-02 05:54:00
4:54 PM,87.1,75.0,67,29.82,10.0,West,6.9,-,N/A,,Scattered Clouds,270,2013-09-02 06:54:00
5:54 PM,84.9,75.0,72,29.83,10.0,West,5.8,-,N/A,,Scattered Clouds,270,2013-09-02 07:54:00
6:54 PM,82.9,73.9,74,29.84,10.0,West,5.8,-,N/A,,Partly Cloudy,270,2013-09-02 08:54:00
7:54 PM,82.9,75.9,79,29.86,10.0,Calm,Calm,-,N/A,,Scattered Clouds,0,2013-09-02 09:54:00
8:54 PM,82.0,75.0,79,29.87,10.0,Calm,Calm,-,N/A,,Scattered Clouds,0,2013-09-02 10:54:00
9:54 PM,82.9,77.0,82,29.89,10.0,Calm,Calm,-,N/A,,Partly Cloudy,0,2013-09-02 11:54:00
10:54 PM,82.0,75.0,79,29.90,10.0,Calm,Calm,-,N/A,,Clear,0,2013-09-02 12:54:00
11:54 PM,82.0,75.0,79,29.88,10.0,Calm,Calm,-,N/A,,Partly Cloudy,0,2013-09-02 13:54:00